Shenandoah, IA

9:07 PM CST on November 23, 2017 (GMT -0600)
Shenandoah Municipal

Weather History for KSDA - November, 2011

Change the Weather History Date:

Wednesday, November 2, 2011

  Actual Average Record
Temperature  
Mean Temperature 44 °F -  
Max Temperature 55 °F 54 °F 82 °F (2005)
Min Temperature 33 °F 36 °F 12 °F (1991)
Degree Days  
Heating Degree Days 21    
Moisture  
Dew Point 34 °F    
Average Humidity 74    
Maximum Humidity 87    
Minimum Humidity 44    
Precipitation  
Precipitation 0.62 in - - ()
Sea Level Pressure  
Sea Level Pressure 30.10 in    
Wind  
Wind Speed 14 mph (NNE)    
Max Wind Speed 26 mph    
Max Gust Speed 34 mph    
Visibility 9 miles    
Events Rain , Snow    
Averages and records for this station are not official NWS values.
T = Trace of Precipitation, MM = Missing Value Source: NWS Daily Summary

Daily Weather History Graph

Daily Weather History Graph

Search for Another Location

Airport or City:

Trip Planner

Search our weather history database for the weather conditions in past years. The results will help you decide how hot, cold, wet, or windy it might be!

Date:

Astronomy

Nov. 02, 2011 Rise Set
Actual Time 7:52 AM CDT 6:16 PM CDT
Civil Twilight 7:24 AM CDT 6:45 PM CDT
Nautical Twilight 6:52 AM CDT 7:17 PM CDT
Astronomical Twilight 6:20 AM CDT 7:49 PM CDT
Moon 2:12 PM CDT (11/2) 12:01 AM CDT (11/2)
Length of Visible Light 11h 20m
Length of Day
10h 24m
Waxing Crescent, 50% of the Moon is Illuminated
Nov 2
Waxing Crescent
Nov 10
Full
Nov 18
Last Quarter
Nov 25
New
Dec 2
First Quarter

Hourly Weather History & Observations

Time (CDT) Temp. Windchill Dew Point Humidity Pressure Visibility Wind Dir Wind Speed Gust Speed Precip Events Conditions
12:15 AM 55.4 °F - 33.8 °F 44% 29.94 in 10.0 mi NE 10.4 mph - N/A   Overcast
12:35 AM 53.6 °F - 33.8 °F 47% 29.95 in 10.0 mi North 11.5 mph - N/A   Overcast
12:55 AM 53.6 °F - 32.0 °F 44% 29.96 in 10.0 mi North 9.2 mph - N/A   Overcast
1:15 AM 53.6 °F - 32.0 °F 44% 29.98 in 10.0 mi North 10.4 mph - N/A   Overcast
1:35 AM 51.8 °F - 32.0 °F 47% 29.98 in 10.0 mi North 11.5 mph 16.1 mph N/A   Overcast
1:55 AM 51.8 °F - 32.0 °F 47% 29.98 in 10.0 mi North 13.8 mph 18.4 mph N/A   Overcast
2:15 AM 51.8 °F - 30.2 °F 44% 29.99 in 10.0 mi NNE 16.1 mph 19.6 mph N/A   Overcast
2:35 AM 50.0 °F - 33.8 °F 54% 29.99 in 10.0 mi North 12.7 mph - N/A   Overcast
2:55 AM 50.0 °F - 35.6 °F 58% 30.00 in 10.0 mi NNE 12.7 mph - N/A   Overcast
3:15 AM 50.0 °F - 35.6 °F 58% 30.00 in 10.0 mi NNE 15.0 mph - N/A   Overcast
3:35 AM 50.0 °F - 35.6 °F 58% 30.00 in 10.0 mi NNE 13.8 mph - N/A   Overcast
3:55 AM 50.0 °F - 35.6 °F 58% 30.00 in 10.0 mi NNE 13.8 mph - N/A   Overcast
4:55 AM 50.0 °F - 35.6 °F 58% 30.01 in 10.0 mi NNE 17.3 mph 23.0 mph N/A   Overcast
5:55 AM 48.2 °F - 33.8 °F 58% 30.02 in 10.0 mi NNE 20.7 mph 24.2 mph N/A   Overcast
6:15 AM 48.2 °F - 37.4 °F 66% 30.03 in 10.0 mi NNE 16.1 mph 25.3 mph N/A Rain Light Rain
6:35 AM 46.4 °F 42.4 °F 37.4 °F 71% 30.09 in 5.0 mi North 8.1 mph - 0.05 in Rain Heavy Rain
6:55 AM 44.6 °F 36.6 °F 37.4 °F 76% 30.01 in 10.0 mi NE 19.6 mph - 0.15 in Rain Rain
7:35 AM 42.8 °F 36.2 °F 37.4 °F 81% 30.06 in 10.0 mi NNE 12.7 mph 16.1 mph 0.09 in Rain Light Rain
7:55 AM 42.8 °F 37.0 °F 37.4 °F 81% 30.09 in 10.0 mi North 10.4 mph - 0.09 in Rain Light Rain
8:15 AM 42.8 °F 38.6 °F 37.4 °F 81% 30.10 in 10.0 mi North 6.9 mph - N/A   Light Drizzle
8:35 AM 42.8 °F 36.2 °F 37.4 °F 81% 30.11 in 10.0 mi North 12.7 mph 18.4 mph 0.01 in Rain Light Rain
8:55 AM 42.8 °F 34.8 °F 37.4 °F 81% 30.09 in 10.0 mi North 17.3 mph 21.9 mph 0.01 in Rain Light Rain
9:15 AM 42.8 °F 35.4 °F 35.6 °F 76% 30.10 in 10.0 mi NNE 15.0 mph 20.7 mph N/A   Overcast
9:35 AM 44.6 °F 37.2 °F 35.6 °F 71% 30.11 in 10.0 mi NNE 17.3 mph 26.5 mph N/A   Overcast
9:55 AM 44.6 °F 36.1 °F 35.6 °F 71% 30.08 in 10.0 mi NNE 21.9 mph 28.8 mph N/A   Overcast
10:15 AM 44.6 °F 36.1 °F 35.6 °F 71% 30.09 in 10.0 mi NNE 21.9 mph 29.9 mph N/A   Overcast
10:35 AM 42.8 °F 33.8 °F 35.6 °F 76% 30.07 in 10.0 mi NNE 21.9 mph 26.5 mph N/A Rain Rain
10:55 AM 41.0 °F 31.9 °F 35.6 °F 81% 30.07 in 5.0 mi NNE 19.6 mph 28.8 mph 0.05 in Rain Rain
11:15 AM 42.8 °F 35.4 °F 35.6 °F 76% 30.12 in 7.0 mi NNE 15.0 mph 18.4 mph 0.01 in Rain Rain
11:35 AM 42.8 °F 34.5 °F 35.6 °F 76% 30.11 in 10.0 mi North 18.4 mph 24.2 mph 0.06 in Rain Light Rain
11:55 AM 41.0 °F 30.9 °F 35.6 °F 81% 30.11 in 10.0 mi NNE 24.2 mph 32.2 mph 0.06 in Rain Light Rain
12:15 PM 39.2 °F 28.3 °F 35.6 °F 87% 30.10 in 10.0 mi NNE 25.3 mph 29.9 mph N/A   Overcast
12:35 PM 39.2 °F 29.3 °F 35.6 °F 87% 30.10 in 10.0 mi NNE 20.7 mph 34.5 mph N/A   Overcast
12:55 PM 39.2 °F 29.6 °F 33.8 °F 81% 30.16 in 10.0 mi North 19.6 mph 31.1 mph N/A   Overcast
1:15 PM 39.2 °F 29.3 °F 33.8 °F 81% 30.15 in 10.0 mi NNE 20.7 mph 29.9 mph N/A   Drizzle
1:35 PM 37.4 °F 25.6 °F 32.0 °F 81% 30.13 in 4.0 mi NNE 26.5 mph 32.2 mph 0.04 in Snow Light Snow
1:55 PM 37.4 °F 27.2 °F 32.0 °F 81% 30.15 in 5.0 mi North 19.6 mph 25.3 mph 0.05 in   Overcast
2:15 PM 37.4 °F 26.4 °F 33.8 °F 87% 30.14 in 1.5 mi North 23.0 mph 31.1 mph 0.05 in Snow Light Snow
2:35 PM 37.4 °F 27.5 °F 32.0 °F 81% 30.13 in 2.0 mi North 18.4 mph 27.6 mph 0.10 in Snow Light Snow
2:55 PM 35.6 °F 25.9 °F 30.2 °F 81% 30.16 in 3.0 mi North 16.1 mph 29.9 mph 0.12 in Snow Light Snow
3:15 PM 33.8 °F 24.8 °F 30.2 °F 87% 30.17 in 3.0 mi North 12.7 mph 20.7 mph 0.02 in Snow Light Snow
3:35 PM 33.8 °F 23.9 °F 30.2 °F 87% 30.16 in 2.5 mi NNE 15.0 mph 21.9 mph 0.04 in Snow Light Snow
3:55 PM 33.8 °F 23.2 °F 30.2 °F 87% 30.15 in 4.0 mi NNE 17.3 mph - 0.05 in Snow Light Snow
4:15 PM 33.8 °F 24.3 °F 30.2 °F 87% 30.17 in 4.0 mi North 13.8 mph 18.4 mph 0.01 in Snow Light Snow
4:35 PM 35.6 °F 25.5 °F 30.2 °F 81% 30.17 in 7.0 mi NNE 17.3 mph 21.9 mph 0.02 in   Overcast
5:15 PM 35.6 °F 25.9 °F 32.0 °F 87% 30.19 in 7.0 mi NNE 16.1 mph - N/A   Overcast
5:35 PM 37.4 °F 28.2 °F 32.0 °F 81% 30.19 in 10.0 mi NNE 16.1 mph 21.9 mph 0.01 in   Overcast
5:55 PM 35.6 °F 26.2 °F 32.0 °F 87% 30.18 in 10.0 mi North 15.0 mph 19.6 mph 0.01 in   Overcast
6:15 PM 35.6 °F 28.0 °F 32.0 °F 87% 30.20 in 7.0 mi North 10.4 mph - N/A   Overcast
6:35 PM 37.4 °F 28.9 °F 32.0 °F 81% 30.18 in 10.0 mi NNE 13.8 mph 17.3 mph N/A   Overcast
6:55 PM 37.4 °F 29.3 °F 33.8 °F 87% 30.17 in 10.0 mi North 12.7 mph 20.7 mph 0.01 in   Mostly Cloudy
7:15 PM 37.4 °F 29.8 °F 33.8 °F 87% 30.19 in 10.0 mi North 11.5 mph - N/A   Mostly Cloudy
7:35 PM 37.4 °F 28.5 °F 33.8 °F 87% 30.20 in 10.0 mi NNE 15.0 mph 20.7 mph N/A   Overcast
7:55 PM 37.4 °F 28.5 °F 33.8 °F 87% 30.20 in 10.0 mi NNE 15.0 mph 21.9 mph N/A   Overcast
8:15 PM 39.2 °F 30.2 °F 33.8 °F 81% 30.19 in 10.0 mi NNE 17.3 mph 24.2 mph N/A   Overcast
8:35 PM 39.2 °F 30.8 °F 33.8 °F 81% 30.20 in 10.0 mi North 15.0 mph 19.6 mph N/A   Drizzle
9:15 PM 37.4 °F 29.8 °F 33.8 °F 87% 30.19 in 10.0 mi North 11.5 mph 17.3 mph N/A Rain Light Rain
9:35 PM 37.4 °F 30.8 °F 33.8 °F 87% 30.20 in 10.0 mi North 9.2 mph - N/A   Overcast
9:55 PM 37.4 °F 30.3 °F 33.8 °F 87% 30.20 in 10.0 mi North 10.4 mph - N/A   Overcast
10:15 PM 37.4 °F 30.8 °F 33.8 °F 87% 30.19 in 10.0 mi North 9.2 mph - N/A   Overcast
10:35 PM 39.2 °F 31.2 °F 33.8 °F 81% 30.19 in 10.0 mi North 13.8 mph - N/A   Overcast
10:55 PM 39.2 °F 30.2 °F 32.0 °F 75% 30.19 in 10.0 mi North 17.3 mph 21.9 mph N/A   Overcast
11:15 PM 39.2 °F 30.8 °F 32.0 °F 75% 30.19 in 10.0 mi North 15.0 mph 20.7 mph N/A   Overcast
11:35 PM 39.2 °F 30.8 °F 30.2 °F 70% 30.19 in 10.0 mi North 15.0 mph 19.6 mph N/A   Overcast
11:55 PM 39.2 °F 31.2 °F 30.2 °F 70% 30.19 in 10.0 mi North 13.8 mph 19.6 mph N/A   Overcast